Flag for Germany Weather past 2 weeks in Bad Vilbel, Hesse, Germany

Now
51 °F

Clear.


Feels Like: 51 °F
Forecast: 50 / 71 °F
Wind: 3 mph from West

Location: Frankfurt / M-Flughafen

Current Time: Jul 30, 2015 at 3:04:46 AM

Latest Report: Jul 30, 2015 at 2:00 AM


Visibility: 37 mi

Pressure: 29.96 "Hg

Humidity: 78%

Dew point: 45 °F

Location of Bad VilbelLocation

Historic Weather in Bad Vilbel — Graph

°F

Bad Vilbel temperature yesterday

Maximum temperature yesterday: 72 °F (at 5:00 PM)
Minimum temperature yesterday: 58 °F (at 7:00 AM)
Average temperature yesterday: 63 °F

Past Weeks' High & Low Weather Summary

 TemperatureHumidityPressure
High95 °F (Jul 17, 6:00 PM)98% (Jul 18, 4:00 AM)30.14 "Hg (Jul 18, 4:00 AM)
Low51 °F (Jul 26, 7:00 AM)23% (Jul 17, 4:00 PM)29.63 "Hg (Jul 27, 8:00 AM)
Average72 °F59%29.90 "Hg
* Reported Jul 15 2:00 AM — Jul 30 2:00 AM, Bad Vilbel, Weather by CustomWeather, © 2015

Note: Actual official high and low records may vary slightly from our data, if they occured in-between our weather recording intervals... More about our weather records

Advertising

Bad Vilbel weather history for previous 24 hours

 ConditionsComfort  
Time TempWeatherWind HumidityBarometerVisibility
2:00 AM
Thu, Jul 30
51 °FClear.3 mph78%29.96 "Hg37 mi
1:00 AM52 °FClear.2 mph75%29.95 "Hg37 mi
10:00 PM
Wed, Jul 29
64 °FPassing clouds.5 mph41%29.90 "Hg37 mi
9:00 PM66 °FScattered clouds.6 mph36%29.88 "Hg37 mi
8:00 PM68 °FScattered clouds.8 mph35%29.85 "Hg37 mi
7:00 PM69 °FScattered clouds.8 mph32%29.83 "Hg37 mi
6:00 PM69 °FScattered clouds.9 mph30%29.82 "Hg37 mi
5:00 PM72 °FPartly sunny.10 mph29%29.80 "Hg37 mi
4:00 PM69 °FScattered clouds.9 mph32%29.79 "Hg34 mi
3:00 PM67 °FScattered clouds.9 mph46%29.79 "Hg31 mi
2:00 PM64 °FPartly sunny.8 mph54%29.80 "Hg25 mi
1:00 PM61 °FOvercast.8 mph72%29.81 "Hg22 mi
12:00 PM60 °FLight rain. Overcast.7 mph70%29.82 "Hg19 mi
10:00 AM61 °FOvercast.7 mph67%29.82 "Hg28 mi
9:00 AM60 °FOvercast.5 mph68%29.83 "Hg28 mi
8:00 AM59 °FOvercast.5 mph72%29.84 "Hg25 mi
7:00 AM58 °FOvercast.5 mph74%29.85 "Hg25 mi
6:00 AM58 °FOvercast.5 mph75%29.85 "Hg22 mi
4:00 AM58 °FOvercast.6 mph76%29.84 "Hg25 mi
3:00 AM58 °FLight rain. Overcast.6 mph72%29.85 "Hg25 mi
Weather by CustomWeather, © 2015

See weather overviewHow to use our weather pages